KI0MQ Weather Reports


Display with metric or nautical units.
time (UTC)temp
F
wind
direction
speed
MPH
gust
MPH
rain 1hr
in
rain 24hr
in
rain mn
in
humidity
%
barometer
mb
20260506231003 61 339 1.0 4.0 0.00 0.00 0.00 33 1015.6
20260506230504 61 315 2.0 8.0 0.00 0.00 0.00 31 1015.7
20260506230008 61 306 2.0 8.0 0.00 0.00 0.00 30 1015.7
20260506225504 61 310 1.0 7.0 0.00 0.00 0.00 31 1015.7
20260506225003 61 18 0.0 5.0 0.00 0.00 0.00 33 1015.7
20260506224508 60 332 2.0 7.0 0.00 0.00 0.00 33 1015.6
20260506224003 60 336 2.0 8.0 0.00 0.00 0.00 32 1015.7
20260506223503 60 341 1.0 8.0 0.00 0.00 0.00 32 1015.9
20260506223009 60 341 1.0 5.0 0.00 0.00 0.00 32 1015.9
20260506222503 60 319 3.0 9.0 0.00 0.00 0.00 32 1015.9
20260506222003 59 328 4.0 9.0 0.00 0.00 0.00 32 1015.9
20260506221508 60 352 2.0 9.0 0.00 0.00 0.00 31 1016.1
20260506220505 59 335 1.0 6.0 0.00 0.00 0.00 33 1016.1
20260506220008 59 332 2.0 7.0 0.00 0.00 0.00 32 1016.1
20260506215503 59 344 2.0 7.0 0.00 0.00 0.00 33 1016.2
20260506215003 59 359 2.0 6.0 0.00 0.00 0.00 34 1016.1
20260506214509 59 358 2.0 10.0 0.00 0.00 0.00 31 1016.2
20260506213503 59 319 2.0 9.0 0.00 0.00 0.00 32 1016.3
20260506213008 60 324 3.0 11.0 0.00 0.00 0.00 31 1016.4
20260506212504 60 327 3.0 11.0 0.00 0.00 0.00 31 1016.3
20260506212003 61 326 2.0 9.0 0.00 0.00 0.00 32 1016.5
20260506211004 60 327 1.0 6.0 0.00 0.00 0.00 31 1016.6
20260506210503 60 329 2.0 8.0 0.00 0.00 0.00 32 1016.6
20260506210008 60 339 2.0 10.0 0.00 0.00 0.00 32 1016.8
20260506205505 60 332 2.0 10.0 0.00 0.00 0.00 33 1016.8
20260506205004 59 323 2.0 5.0 0.00 0.00 0.00 32 1016.9
20260506204510 60 303 2.0 8.0 0.00 0.00 0.00 34 1016.9
20260506204003 60 346 2.0 8.0 0.00 0.00 0.00 31 1017.1
20260506203503 60 26 1.0 6.0 0.00 0.00 0.00 33 1017.0
20260506203009 60 350 2.0 7.0 0.00 0.00 0.00 33 1017.1
20260506202504 60 352 3.0 12.0 0.00 0.00 0.00 31 1017.2
20260506202003 60 328 3.0 12.0 0.00 0.00 0.00 32 1017.1
20260506201508 61 260 2.0 7.0 0.00 0.00 0.00 31 1017.2
20260506201003 61 290 3.0 13.0 0.00 0.00 0.00 31 1017.2
20260506200504 60 335 3.0 13.0 0.00 0.00 0.00 38 1017.2
20260506200008 59 323 2.0 10.0 0.00 0.00 0.00 33 1017.2
20260506195503 59 328 3.0 10.0 0.00 0.00 0.00 32 1017.3
20260506195003 59 336 3.0 8.0 0.00 0.00 0.00 33 1017.6
20260506194509 60 319 3.0 9.0 0.00 0.00 0.00 33 1017.5
20260506194003 60 316 4.0 11.0 0.00 0.00 0.00 32 1017.5
20260506193503 60 310 3.0 11.0 0.00 0.00 0.00 33 1017.5
20260506193009 60 273 2.0 8.0 0.00 0.00 0.00 36 1017.5
20260506192504 60 307 3.0 9.0 0.00 0.00 0.00 35 1017.5
20260506192004 59 335 2.0 9.0 0.00 0.00 0.00 34 1017.5
20260506191003 59 312 3.0 14.0 0.00 0.00 0.00 34 1017.6
20260506190503 60 313 3.0 14.0 0.00 0.00 0.00 34 1017.6
20260506190008 60 307 3.0 9.0 0.00 0.00 0.00 33 1017.7
20260506185003 59 330 3.0 10.0 0.00 0.00 0.00 34 1017.8
20260506184509 59 327 3.0 10.0 0.00 0.00 0.00 34 1017.8
20260506183503 59 290 2.0 9.0 0.00 0.00 0.00 34 1017.8
20260506183008 58 287 2.0 9.0 0.00 0.00 0.00 35 1017.9
20260506182504 57 304 2.0 7.0 0.00 0.00 0.00 36 1018.0
20260506182003 58 298 2.0 8.0 0.00 0.00 0.00 38 1018.1
20260506181509 58 270 2.0 8.0 0.00 0.00 0.00 38 1018.0
20260506181004 58 354 3.0 11.0 0.00 0.00 0.00 42 1018.1
20260506180503 56 9 4.0 11.0 0.00 0.00 0.00 37 1018.2
20260506180009 55 5 3.0 11.0 0.00 0.00 0.00 38 1018.2
20260506174508 57 288 1.0 11.0 0.00 0.00 0.00 37 1018.5
20260506174004 56 301 1.0 6.0 0.00 0.00 0.00 37 1018.6
20260506173503 56 338 1.0 6.0 0.00 0.00 0.00 39 1018.6
20260506173008 56 12 1.0 6.0 0.00 0.00 0.00 44 1018.6
20260506172504 56 356 2.0 9.0 0.00 0.00 0.00 40 1018.7
20260506171003 56 309 2.0 6.0 0.00 0.00 0.00 41 1018.8
20260506170504 56 319 2.0 5.0 0.00 0.00 0.00 41 1018.9
20260506170009 55 322 2.0 6.0 0.00 0.00 0.00 40 1018.9
20260506165503 55 276 2.0 6.0 0.00 0.00 0.00 40 1019.0
20260506165003 55 270 2.0 6.0 0.00 0.00 0.00 43 1018.9
20260506164509 55 3 3.0 8.0 0.00 0.00 0.00 41 1019.0
20260506164003 54 9 3.0 9.0 0.00 0.00 0.00 42 1019.0
20260506162503 54 336 1.0 6.0 0.00 0.00 0.00 42 1019.0
20260506162003 54 311 1.0 5.0 0.00 0.00 0.00 43 1019.1
20260506161508 53 2 2.0 12.0 0.00 0.00 0.00 43 1019.1
20260506161004 52 7 3.0 12.0 0.00 0.00 0.00 45 1019.1
20260506160503 52 347 2.0 7.0 0.00 0.00 0.00 43 1019.0
20260506160008 52 342 2.0 8.0 0.00 0.00 0.00 43 1019.0
20260506155503 52 330 1.0 8.0 0.00 0.00 0.00 44 1018.9
20260506155004 52 318 1.0 5.0 0.00 0.00 0.00 51 1018.9
20260506154508 52 350 1.0 5.0 0.00 0.00 0.00 47 1018.9
20260506154004 52 10 1.0 5.0 0.00 0.00 0.00 46 1018.9
20260506153008 50 355 2.0 6.0 0.00 0.00 0.00 47 1019.1
20260506152503 50 347 2.0 6.0 0.00 0.00 0.00 47 1019.0
20260506152004 50 325 2.0 7.0 0.00 0.00 0.00 47 1019.0
20260506151508 50 332 2.0 8.0 0.00 0.00 0.00 47 1019.1
20260506151003 50 356 2.0 8.0 0.00 0.00 0.00 54 1019.0
20260506150503 50 1 2.0 6.0 0.00 0.00 0.00 49 1019.0
20260506145504 50 339 2.0 6.0 0.00 0.00 0.00 48 1019.0
20260506145004 50 317 1.0 5.0 0.00 0.00 0.00 49 1019.1
20260506144508 49 299 0.0 3.0 0.00 0.00 0.00 50 1019.0
20260506144004 49 356 1.0 4.0 0.00 0.00 0.00 52 1019.1
20260506143503 48 2 1.0 4.0 0.00 0.00 0.00 52 1019.0
20260506143009 48 7 1.0 6.0 0.00 0.00 0.00 54 1019.0
20260506142504 48 350 0.0 6.0 0.00 0.00 0.00 54 1019.0
20260506142003 48 329 1.0 3.0 0.00 0.00 0.00 55 1019.0
20260506141003 47 354 1.0 4.0 0.00 0.00 0.00 54 1018.8
20260506140503 47 321 0.0 3.0 0.00 0.00 0.00 55 1018.8
20260506135504 46 322 1.0 4.0 0.00 0.00 0.00 58 1018.7
20260506135003 45 339 0.0 2.0 0.00 0.00 0.00 59 1018.8
20260506134003 45 328 0.0 3.0 0.00 0.00 0.00 60 1018.6
20260506133504 44 333 1.0 3.0 0.00 0.00 0.00 62 1018.6
20260506133008 44 343 1.0 4.0 0.00 0.00 0.00 61 1018.5
20260506132503 44 340 1.0 5.0 0.00 0.00 0.00 62 1018.5
20260506132005 43 338 1.0 5.0 0.00 0.00 0.00 62 1018.4
20260506131508 43 350 2.0 4.0 0.00 0.00 0.00 62 1018.3
20260506131003 42 351 1.0 4.0 0.00 0.00 0.00 64 1018.3
20260506130503 42 349 1.0 3.0 0.00 0.00 0.00 64 1018.2
20260506125505 41 346 0.0 3.0 0.00 0.00 0.00 68 1018.2
20260506125003 40 312 0.0 2.0 0.00 0.00 0.00 69 1018.2
20260506124508 40 306 0.0 2.0 0.00 0.00 0.00 71 1018.2
20260506124004 39 287 0.0 2.0 0.00 0.00 0.00 72 1018.1
20260506123503 39 285 0.0 3.0 0.00 0.00 0.00 74 1018.0
20260506122003 36 350 0.0 1.0 0.00 0.00 0.00 79 1017.7
20260506121508 36 350 0.0 1.0 0.00 0.00 0.00 80 1017.7
20260506121003 36 0 0.0 0.0 0.00 0.00 0.00 81 1017.6
20260506120503 35 0 0.0 0.0 0.00 0.00 0.00 81 1017.5
20260506120008 35 0 0.0 0.0 0.00 0.00 0.00 81 1017.4
20260506115003 34 0 0.0 0.0 0.00 0.00 0.00 80 1017.2
20260506114508 34 0 0.0 0.0 0.00 0.00 0.00 79 1017.2
20260506114003 34 0 0.0 0.0 0.00 0.00 0.00 79 1017.2
20260506113503 35 0 0.0 0.0 0.00 0.00 0.00 78 1017.1
20260506113008 35 0 0.0 0.0 0.00 0.00 0.00 78 1017.1
20260506112504 35 0 0.0 0.0 0.00 0.00 0.00 77 1017.0
20260506112003 35 0 0.0 0.0 0.00 0.00 0.00 76 1016.9
20260506111003 36 0 0.0 0.0 0.00 0.00 0.00 76 1017.0
20260506110503 36 0 0.0 0.0 0.00 0.00 0.00 76 1016.9
20260506110008 36 0 0.0 0.0 0.00 0.00 0.00 76 1017.0
20260506105503 36 0 0.0 0.0 0.00 0.00 0.00 75 1017.0
20260506105003 36 0 0.0 0.0 0.00 0.00 0.00 76 1016.9
20260506104508 37 0 0.0 0.0 0.00 0.00 0.00 75 1016.9
20260506104004 37 0 0.0 0.0 0.00 0.00 0.00 75 1017.0
20260506103503 37 0 0.0 0.0 0.00 0.00 0.00 74 1016.9
20260506103008 38 0 0.0 0.0 0.00 0.00 0.00 74 1016.9
20260506102503 38 0 0.0 0.0 0.00 0.00 0.00 73 1016.9
20260506101508 39 0 0.0 0.0 0.00 0.00 0.00 75 1016.8
20260506101003 39 0 0.0 0.0 0.00 0.00 0.00 76 1016.7
20260506100503 39 0 0.0 0.0 0.00 0.00 0.00 74 1016.7
20260506100009 39 0 0.0 0.0 0.00 0.00 0.00 73 1016.7
20260506095503 39 0 0.0 0.0 0.00 0.00 0.00 73 1016.6
20260506095004 40 0 0.0 0.0 0.00 0.00 0.00 73 1016.6
20260506094509 40 0 0.0 0.0 0.00 0.00 0.00 74 1016.5
20260506094003 40 0 0.0 0.0 0.00 0.00 0.00 72 1016.6
20260506093008 40 0 0.0 0.0 0.00 0.00 0.00 71 1016.4
20260506092004 40 0 0.0 0.0 0.00 0.00 0.00 70 1016.3
20260506091005 41 0 0.0 0.0 0.00 0.00 0.00 69 1016.2
20260506090503 41 0 0.0 0.0 0.00 0.00 0.00 69 1016.1
20260506090009 41 0 0.0 0.0 0.00 0.00 0.00 68 1016.1
20260506085503 41 0 0.0 0.0 0.00 0.00 0.00 66 1016.0
20260506085003 42 0 0.0 0.0 0.00 0.00 0.00 65 1016.0
20260506084508 42 0 0.0 0.0 0.00 0.00 0.00 65 1016.0
20260506084003 42 0 0.0 0.0 0.00 0.00 0.00 64 1015.9
20260506083504 42 0 0.0 0.0 0.00 0.00 0.00 63 1015.9
20260506083008 43 0 0.0 0.0 0.00 0.00 0.00 63 1015.9
20260506082503 43 0 0.0 0.0 0.00 0.00 0.00 62 1015.9
20260506082004 43 0 0.0 0.0 0.00 0.00 0.00 62 1015.8
20260506081003 44 0 0.0 0.0 0.00 0.00 0.00 62 1015.8
20260506080503 44 0 0.0 0.0 0.00 0.00 0.00 60 1015.9
20260506073503 45 350 0.0 1.0 0.00 0.00 0.00 54 1015.6
20260506073008 46 0 0.0 0.0 0.00 0.00 0.00 52 1015.6
20260506072503 46 351 0.0 1.0 0.00 0.00 0.00 52 1015.6
20260506072003 46 350 0.0 1.0 0.00 0.00 0.00 52 1015.6
20260506071508 46 347 0.0 1.0 0.00 0.00 0.00 51 1015.6
20260506071004 46 345 0.0 1.0 0.00 0.00 0.00 52 1015.5
20260506062504 47 2 0.0 3.0 0.00 0.00 0.00 50 1015.6
20260506062004 47 2 0.0 3.0 0.00 0.00 0.00 50 1015.5
20260506061507 47 348 0.0 3.0 0.00 0.00 0.00 49 1015.5
20260506061004 47 341 0.0 3.0 0.00 0.01 0.00 49 1015.5
20260506060504 47 8 0.0 3.0 0.00 0.01 0.00 50 1015.5
20260506045003 48 345 0.0 1.0 0.00 0.01 0.01 52 1014.7
20260506044508 48 345 0.0 1.0 0.00 0.03 0.01 52 1014.7
20260506044003 48 345 0.0 1.0 0.00 0.03 0.01 52 1014.7
20260506043504 49 345 0.0 1.0 0.00 0.03 0.01 52 1014.6
20260506043008 49 350 0.0 1.0 0.00 0.03 0.01 50 1014.7
20260506042503 49 3 0.0 1.0 0.00 0.04 0.01 49 1014.7
20260506042003 49 3 0.0 1.0 0.00 0.04 0.01 49 1014.6
20260506041508 49 2 0.0 1.0 0.00 0.04 0.01 53 1014.6
20260506041004 49 4 0.0 2.0 0.00 0.04 0.01 48 1014.4
20260506040504 49 7 0.0 2.0 0.00 0.04 0.01 48 1014.5
20260506040008 50 9 0.0 1.0 0.00 0.04 0.01 47 1014.4
20260506035503 50 9 0.0 1.0 0.00 0.04 0.01 48 1014.4
20260506035003 50 9 0.0 1.0 0.00 0.04 0.01 46 1014.5
20260506034508 50 346 0.0 2.0 0.00 0.04 0.01 46 1014.5
20260506034003 50 353 0.0 2.0 0.00 0.04 0.01 45 1014.4
20260506033008 50 16 0.0 1.0 0.00 0.04 0.01 44 1014.3
20260506032503 51 5 0.0 2.0 0.00 0.04 0.01 44 1014.2
20260506032003 51 1 1.0 4.0 0.00 0.04 0.01 44 1014.1
20260506031005 51 345 1.0 5.0 0.00 0.04 0.01 43 1014.0
20260506030504 51 348 1.0 4.0 0.00 0.04 0.01 43 1013.9
20260506030008 51 6 1.0 4.0 0.00 0.04 0.01 43 1013.8
20260506025503 51 7 1.0 4.0 0.00 0.04 0.01 43 1013.8
20260506025004 51 3 1.0 6.0 0.00 0.04 0.01 43 1013.7
20260506024507 52 347 1.0 6.0 0.00 0.04 0.01 43 1013.7
20260506024004 52 349 1.0 5.0 0.00 0.04 0.01 42 1013.6
20260506023504 52 359 1.0 5.0 0.00 0.04 0.01 42 1013.5
20260506023008 52 356 1.0 6.0 0.00 0.04 0.01 42 1013.5
20260506022504 52 10 1.0 6.0 0.00 0.04 0.01 42 1013.4
20260506021509 52 4 1.0 5.0 0.00 0.04 0.01 41 1013.3
20260506021003 52 15 1.0 4.0 0.00 0.04 0.01 41 1013.2
20260506020008 52 16 1.0 5.0 0.00 0.04 0.01 40 1013.2
20260506015505 53 10 1.0 4.0 0.00 0.04 0.01 41 1013.1
20260506015003 53 359 2.0 6.0 0.00 0.04 0.01 40 1013.1
20260506014509 53 356 2.0 6.0 0.00 0.04 0.01 40 1012.9
20260506014003 53 355 2.0 6.0 0.00 0.04 0.01 40 1012.8
20260506013504 53 357 2.0 6.0 0.00 0.04 0.01 40 1012.7
20260506012503 53 9 2.0 8.0 0.00 0.04 0.01 40 1012.6
20260506012003 53 17 2.0 9.0 0.00 0.04 0.01 40 1012.6
20260506011508 53 15 2.0 10.0 0.00 0.04 0.01 40 1012.6
20260506011003 54 356 2.0 10.0 0.00 0.04 0.01 40 1012.5
20260506010504 54 353 3.0 10.0 0.00 0.04 0.01 40 1012.4
20260506005504 54 358 3.0 9.0 0.00 0.04 0.01 40 1012.5
20260506005003 54 355 3.0 7.0 0.00 0.04 0.01 41 1012.5
20260506003503 54 358 3.0 7.0 0.00 0.04 0.01 39 1012.3
20260506003008 54 16 3.0 12.0 0.00 0.04 0.01 39 1012.2
20260506002503 54 7 4.0 12.0 0.00 0.04 0.01 39 1012.3
20260506002004 54 353 4.0 11.0 0.00 0.04 0.01 39 1012.1
20260506001508 55 356 2.0 10.0 0.00 0.04 0.01 39 1012.2
20260506001003 55 359 3.0 10.0 0.00 0.04 0.01 40 1012.2
20260506000008 55 344 3.0 13.0 0.00 0.04 0.01 39 1012.2
20260505235503 55 355 3.0 9.0 0.00 0.04 0.01 40 1012.1
20260505235005 55 4 3.0 11.0 0.00 0.04 0.01 39 1012.1
20260505234508 55 10 3.0 14.0 0.00 0.04 0.01 39 1012.1
20260505234003 55 3 3.0 14.0 0.00 0.04 0.01 38 1012.1
20260505233504 55 343 4.0 14.0 0.00 0.04 0.01 38 1012.0
20260505233008 56 349 4.0 13.0 0.00 0.04 0.01 39 1011.9
20260505232504 56 5 4.0 14.0 0.00 0.04 0.01 39 1011.9
20260505232003 56 357 3.0 14.0 0.00 0.04 0.01 38 1011.9
20260505231508 56 354 3.0 9.0 0.00 0.04 0.01 40 1011.8